Time,TemperatureF,DewpointF,PressureIn,WindDirection,WindDirectionDegrees,WindSpeedMPH,WindSpeedGustMPH,Humidity,HourlyPrecipIn,Conditions,Clouds,dailyrainin,SoftwareType,DateUTC
2013-09-30 00:05:00,51.0,49.0,30.00,East,97,0.0,0.0,93,0.00,,SKC,0.00,VWS V12.07,2013-09-30 05:05:00,
2013-09-30 00:11:00,50.8,48.6,30.00,East,97,0.0,0.0,92,0.00,,SKC,0.00,VWS V12.07,2013-09-30 05:11:00,
2013-09-30 00:17:00,50.6,48.7,30.00,East,97,0.0,0.0,93,0.00,,SKC,0.00,VWS V12.07,2013-09-30 05:17:00,
2013-09-30 00:23:00,50.9,49.0,30.00,East,97,0.0,0.0,93,0.00,,SKC,0.00,VWS V12.07,2013-09-30 05:23:00,
2013-09-30 00:29:00,51.2,49.2,30.00,East,97,0.0,0.0,93,0.00,,SKC,0.00,VWS V12.07,2013-09-30 05:29:00,
2013-09-30 00:35:00,51.2,49.2,30.00,East,98,0.0,0.0,93,0.00,,SKC,0.00,VWS V12.07,2013-09-30 05:35:00,
2013-09-30 00:41:00,51.2,49.2,30.00,East,98,0.0,0.0,93,0.00,,SKC,0.00,VWS V12.07,2013-09-30 05:41:00,
2013-09-30 00:47:00,51.3,49.6,30.00,East,97,0.0,0.0,94,0.00,,SKC,0.00,VWS V12.07,2013-09-30 05:47:00,
2013-09-30 00:53:00,51.1,49.2,30.00,East,98,0.0,0.0,93,0.00,,SKC,0.00,VWS V12.07,2013-09-30 05:53:00,
2013-09-30 00:59:00,50.8,48.8,30.00,East,97,0.0,0.0,93,0.00,,SKC,0.00,VWS V12.07,2013-09-30 05:59:00,
2013-09-30 01:05:00,50.6,48.9,29.99,East,98,0.0,0.0,94,0.00,,SKC,0.00,VWS V12.07,2013-09-30 06:05:00,
2013-09-30 01:11:00,50.4,48.7,29.99,East,98,0.0,0.0,94,0.00,,SKC,0.00,VWS V12.07,2013-09-30 06:11:00,
2013-09-30 01:17:00,50.1,48.4,29.99,East,97,0.0,0.0,94,0.00,,SKC,0.00,VWS V12.07,2013-09-30 06:17:00,
2013-09-30 01:23:00,50.1,48.7,30.00,East,97,0.0,0.0,95,0.00,,SKC,0.00,VWS V12.07,2013-09-30 06:23:00,
2013-09-30 01:29:00,50.0,48.6,29.99,East,97,0.0,0.0,95,0.00,,SKC,0.00,VWS V12.07,2013-09-30 06:29:00,
2013-09-30 01:35:00,49.8,48.4,29.99,East,98,0.0,0.0,95,0.00,,SKC,0.00,VWS V12.07,2013-09-30 06:35:00,
2013-09-30 01:40:00,49.8,48.4,29.99,East,97,0.0,0.0,95,0.00,,SKC,0.00,VWS V12.07,2013-09-30 06:40:00,
2013-09-30 01:46:00,49.7,48.3,29.99,East,97,0.0,0.0,95,0.00,,SKC,0.00,VWS V12.07,2013-09-30 06:46:00,
2013-09-30 01:51:00,49.8,48.7,29.99,East,98,0.0,0.0,96,0.00,,SKC,0.00,VWS V12.07,2013-09-30 06:51:00,
2013-09-30 01:58:00,49.6,48.2,29.99,East,98,0.0,0.0,95,0.00,,SKC,0.00,VWS V12.07,2013-09-30 06:58:00,
2013-09-30 02:04:00,49.5,48.1,29.99,East,97,0.0,0.0,95,0.00,,SKC,0.00,VWS V12.07,2013-09-30 07:04:00,
2013-09-30 02:11:00,49.0,47.6,29.98,East,98,0.0,0.0,95,0.00,,SKC,0.00,VWS V12.07,2013-09-30 07:11:00,
2013-09-30 02:16:00,49.0,47.9,29.98,East,97,0.0,0.0,96,0.00,,SKC,0.00,VWS V12.07,2013-09-30 07:16:00,
2013-09-30 02:22:00,49.3,48.2,29.98,East,97,0.0,0.0,96,0.00,,SKC,0.00,VWS V12.07,2013-09-30 07:22:00,
2013-09-30 02:27:00,49.6,48.8,29.98,East,98,0.0,0.0,97,0.00,,SKC,0.00,VWS V12.07,2013-09-30 07:27:00,
2013-09-30 02:33:00,49.7,48.9,29.98,East,97,0.0,0.0,97,0.00,,SKC,0.00,VWS V12.07,2013-09-30 07:33:00,
2013-09-30 02:39:00,49.7,48.6,29.97,ESE,110,0.0,0.0,96,0.00,,SKC,0.00,VWS V12.07,2013-09-30 07:39:00,
2013-09-30 02:44:00,49.7,48.6,29.97,ESE,110,0.0,0.0,96,0.00,,SKC,0.00,VWS V12.07,2013-09-30 07:44:00,
2013-09-30 02:51:00,49.7,48.6,29.97,ESE,110,0.0,0.0,96,0.00,,SKC,0.00,VWS V12.07,2013-09-30 07:51:00,
2013-09-30 02:57:00,49.8,48.7,29.97,ESE,110,0.0,0.0,96,0.00,,SKC,0.00,VWS V12.07,2013-09-30 07:57:00,
2013-09-30 03:04:00,49.5,48.4,29.97,ESE,110,0.0,0.0,96,0.00,,SKC,0.00,VWS V12.07,2013-09-30 08:04:00,
2013-09-30 03:11:00,49.1,48.0,29.97,ESE,110,0.0,0.0,96,0.00,,SKC,0.00,VWS V12.07,2013-09-30 08:11:00,
2013-09-30 03:17:00,48.8,47.7,29.97,ESE,110,0.0,0.0,96,0.00,,SKC,0.00,VWS V12.07,2013-09-30 08:17:00,
2013-09-30 03:23:00,49.1,48.3,29.97,ESE,113,0.0,0.0,97,0.00,,SKC,0.00,VWS V12.07,2013-09-30 08:23:00,
2013-09-30 03:29:00,49.5,48.7,29.97,ESE,118,2.0,2.0,97,0.00,,SKC,0.00,VWS V12.07,2013-09-30 08:29:00,
2013-09-30 03:34:00,49.8,49.0,29.96,ESE,117,1.0,1.0,97,0.00,,SKC,0.00,VWS V12.07,2013-09-30 08:34:00,
2013-09-30 03:41:00,50.2,49.1,29.96,East,100,0.0,3.0,96,0.00,,SKC,0.00,VWS V12.07,2013-09-30 08:41:00,
2013-09-30 03:46:00,50.3,48.9,29.96,ESE,115,1.0,3.0,95,0.00,,SKC,0.00,VWS V12.07,2013-09-30 08:46:00,
2013-09-30 03:52:00,50.2,48.8,29.96,ESE,111,0.0,3.0,95,0.00,,SKC,0.00,VWS V12.07,2013-09-30 08:52:00,
2013-09-30 03:58:00,50.1,48.7,29.96,ESE,112,0.0,3.0,95,0.00,,SKC,0.00,VWS V12.07,2013-09-30 08:58:00,
2013-09-30 04:06:00,49.6,48.0,29.97,ESE,112,0.0,0.0,94,0.00,,SKC,0.00,VWS V12.07,2013-09-30 09:06:00,
2013-09-30 04:12:00,49.2,47.8,29.97,ESE,111,0.0,0.0,95,0.00,,SKC,0.00,VWS V12.07,2013-09-30 09:12:00,
2013-09-30 04:17:00,49.0,47.6,29.97,ESE,111,0.0,0.0,95,0.00,,SKC,0.00,VWS V12.07,2013-09-30 09:17:00,
2013-09-30 04:23:00,48.6,47.2,29.97,ESE,112,0.0,0.0,95,0.00,,SKC,0.00,VWS V12.07,2013-09-30 09:23:00,
2013-09-30 04:29:00,48.6,47.5,29.97,ESE,112,0.0,0.0,96,0.00,,SKC,0.00,VWS V12.07,2013-09-30 09:29:00,
2013-09-30 04:35:00,48.5,47.4,29.98,ESE,112,0.0,0.0,96,0.00,,SKC,0.00,VWS V12.07,2013-09-30 09:35:00,
2013-09-30 04:40:00,48.2,47.1,29.97,ESE,112,0.0,0.0,96,0.00,,SKC,0.00,VWS V12.07,2013-09-30 09:40:00,
2013-09-30 04:46:00,47.7,46.3,29.98,ESE,112,0.0,0.0,95,0.00,,SKC,0.00,VWS V12.07,2013-09-30 09:46:00,
2013-09-30 04:51:00,47.3,45.9,29.98,ESE,112,0.0,0.0,95,0.00,,SKC,0.00,VWS V12.07,2013-09-30 09:51:00,
2013-09-30 04:57:00,47.3,46.2,29.98,ESE,111,0.0,0.0,96,0.00,,SKC,0.00,VWS V12.07,2013-09-30 09:57:00,
2013-09-30 05:03:00,47.2,46.1,29.98,ESE,112,0.0,0.0,96,0.00,,SKC,0.00,VWS V12.07,2013-09-30 10:03:00,
2013-09-30 05:09:00,47.1,46.0,29.98,ESE,112,0.0,0.0,96,0.00,,SKC,0.00,VWS V12.07,2013-09-30 10:09:00,
2013-09-30 05:15:00,47.0,45.9,29.98,ESE,112,0.0,0.0,96,0.00,,SKC,0.00,VWS V12.07,2013-09-30 10:15:00,
2013-09-30 05:21:00,46.7,45.6,29.98,ESE,112,0.0,0.0,96,0.00,,SKC,0.00,VWS V12.07,2013-09-30 10:21:00,
2013-09-30 05:27:00,46.5,45.4,29.99,ESE,112,0.0,0.0,96,0.00,,SKC,0.00,VWS V12.07,2013-09-30 10:27:00,
2013-09-30 05:32:00,46.2,45.1,29.99,ESE,111,0.0,0.0,96,0.00,,SKC,0.00,VWS V12.07,2013-09-30 10:32:00,
2013-09-30 05:37:00,46.1,45.0,29.99,ESE,112,0.0,0.0,96,0.00,,SKC,0.00,VWS V12.07,2013-09-30 10:37:00,
2013-09-30 05:43:00,46.3,45.5,29.99,ESE,112,0.0,0.0,97,0.00,,SKC,0.00,VWS V12.07,2013-09-30 10:43:00,
2013-09-30 05:49:00,46.2,45.4,29.99,ESE,112,0.0,0.0,97,0.00,,SKC,0.00,VWS V12.07,2013-09-30 10:49:00,
2013-09-30 05:56:00,46.5,45.7,29.98,ESE,112,0.0,0.0,97,0.00,,SKC,0.00,VWS V12.07,2013-09-30 10:56:00,
2013-09-30 06:01:00,46.4,45.6,29.99,ESE,111,0.0,0.0,97,0.00,,SKC,0.00,VWS V12.07,2013-09-30 11:01:00,
2013-09-30 06:08:00,46.9,46.1,29.98,ESE,111,0.0,1.0,97,0.00,,SKC,0.00,VWS V12.07,2013-09-30 11:08:00,
2013-09-30 06:16:00,47.2,46.7,29.98,ESE,111,0.0,1.0,98,0.00,,SKC,0.00,VWS V12.07,2013-09-30 11:16:00,
2013-09-30 06:21:00,47.4,46.9,29.98,SE,137,0.0,1.0,98,0.00,,SKC,0.00,VWS V12.07,2013-09-30 11:21:00,
2013-09-30 06:26:00,47.6,47.1,29.98,SE,143,0.0,1.0,98,0.00,,SKC,0.00,VWS V12.07,2013-09-30 11:26:00,
2013-09-30 06:32:00,47.6,47.1,29.98,SE,143,0.0,0.0,98,0.00,,SKC,0.00,VWS V12.07,2013-09-30 11:32:00,
2013-09-30 06:37:00,47.6,46.8,29.97,ESE,115,0.0,1.0,97,0.00,,SKC,0.00,VWS V12.07,2013-09-30 11:37:00,
2013-09-30 06:44:00,47.7,46.9,29.98,ESE,112,0.0,2.0,97,0.00,,SKC,0.00,VWS V12.07,2013-09-30 11:44:00,
2013-09-30 06:50:00,47.9,46.8,29.98,ESE,113,0.0,2.0,96,0.00,,SKC,0.00,VWS V12.07,2013-09-30 11:50:00,
2013-09-30 06:55:00,47.9,46.8,29.99,ESE,113,0.0,2.0,96,0.00,,SKC,0.00,VWS V12.07,2013-09-30 11:55:00,
2013-09-30 07:01:00,48.0,46.9,29.98,ESE,113,0.0,2.0,96,0.00,,SKC,0.00,VWS V12.07,2013-09-30 12:01:00,
2013-09-30 07:06:00,48.1,47.0,29.99,ESE,113,0.0,0.0,96,0.00,,SKC,0.00,VWS V12.07,2013-09-30 12:06:00,
2013-09-30 07:11:00,48.1,47.0,29.99,ESE,113,2.0,2.0,96,0.00,,SKC,0.00,VWS V12.07,2013-09-30 12:11:00,
2013-09-30 07:16:00,48.3,46.9,29.98,ESE,118,1.0,3.0,95,0.00,,SKC,0.00,VWS V12.07,2013-09-30 12:16:00,
2013-09-30 07:21:00,48.9,47.5,29.98,ESE,120,1.0,3.0,95,0.00,,SKC,0.00,VWS V12.07,2013-09-30 12:21:00,
2013-09-30 07:26:00,49.6,48.0,29.99,ESE,116,1.0,3.0,94,0.00,,SKC,0.00,VWS V12.07,2013-09-30 12:26:00,
2013-09-30 07:31:00,50.4,48.5,29.99,East,101,0.0,3.0,93,0.00,,SKC,0.00,VWS V12.07,2013-09-30 12:31:00,
2013-09-30 07:36:00,51.0,48.8,29.99,ESE,104,0.0,0.0,92,0.00,,SKC,0.00,VWS V12.07,2013-09-30 12:36:00,
2013-09-30 07:42:00,51.6,48.8,29.99,ESE,116,0.0,2.0,90,0.00,,SKC,0.00,VWS V12.07,2013-09-30 12:42:00,
2013-09-30 07:48:00,52.2,49.1,29.98,ESE,107,1.0,3.0,89,0.00,,SKC,0.00,VWS V12.07,2013-09-30 12:48:00,
2013-09-30 07:53:00,52.8,49.3,29.98,SE,134,1.0,3.0,88,0.00,,SKC,0.00,VWS V12.07,2013-09-30 12:53:00,
2013-09-30 08:01:00,53.7,49.6,29.98,ESE,120,0.0,3.0,86,0.00,,SKC,0.00,VWS V12.07,2013-09-30 13:01:00,
2013-09-30 08:07:00,54.3,49.9,29.97,ESE,113,2.0,4.0,85,0.00,,SKC,0.00,VWS V12.07,2013-09-30 13:07:00,
2013-09-30 08:12:00,54.4,50.0,29.97,ESE,120,2.0,5.0,85,0.00,,SKC,0.00,VWS V12.07,2013-09-30 13:12:00,
2013-09-30 08:19:00,54.8,50.4,29.97,ESE,120,3.0,5.0,85,0.00,,SKC,0.00,VWS V12.07,2013-09-30 13:19:00,
2013-09-30 08:24:00,55.3,50.9,29.97,SE,136,0.0,5.0,85,0.00,,SKC,0.00,VWS V12.07,2013-09-30 13:24:00,
2013-09-30 08:31:00,55.9,50.8,29.97,ESE,115,1.0,5.0,83,0.00,,SKC,0.00,VWS V12.07,2013-09-30 13:31:00,
2013-09-30 08:36:00,56.4,51.3,29.97,ESE,106,2.0,4.0,83,0.00,,SKC,0.00,VWS V12.07,2013-09-30 13:36:00,
2013-09-30 08:41:00,56.8,51.4,29.97,East,93,1.0,5.0,82,0.00,,SKC,0.00,VWS V12.07,2013-09-30 13:41:00,
2013-09-30 08:46:00,57.4,51.3,29.97,SE,131,0.0,5.0,80,0.00,,SKC,0.00,VWS V12.07,2013-09-30 13:46:00,
2013-09-30 08:51:00,58.2,51.7,29.97,SSE,160,1.0,5.0,79,0.00,,SKC,0.00,VWS V12.07,2013-09-30 13:51:00,
2013-09-30 08:56:00,58.7,51.5,29.97,ESE,103,2.0,5.0,77,0.00,,SKC,0.00,VWS V12.07,2013-09-30 13:56:00,
2013-09-30 09:02:00,59.6,53.1,29.97,SSE,148,0.0,0.0,79,0.00,,SKC,0.00,VWS V12.07,2013-09-30 14:02:00,
2013-09-30 09:09:00,60.6,52.6,29.97,SSW,194,2.0,4.0,75,0.00,,SKC,0.00,VWS V12.07,2013-09-30 14:09:00,
2013-09-30 09:14:00,61.2,53.9,29.97,SSE,148,0.0,4.0,77,0.00,,SKC,0.00,VWS V12.07,2013-09-30 14:14:00,
2013-09-30 09:21:00,62.0,54.4,29.97,East,96,0.0,4.0,76,0.00,,SKC,0.00,VWS V12.07,2013-09-30 14:21:00,
2013-09-30 09:26:00,62.6,54.9,29.97,East,100,1.0,4.0,76,0.00,,SKC,0.00,VWS V12.07,2013-09-30 14:26:00,
2013-09-30 09:31:00,63.2,55.5,29.97,East,101,0.0,4.0,76,0.00,,SKC,0.00,VWS V12.07,2013-09-30 14:31:00,
2013-09-30 09:36:00,63.8,55.4,29.97,SSE,158,0.0,4.0,74,0.00,,SKC,0.00,VWS V12.07,2013-09-30 14:36:00,
2013-09-30 09:41:00,64.2,55.8,29.96,South,183,3.0,5.0,74,0.00,,SKC,0.00,VWS V12.07,2013-09-30 14:41:00,
2013-09-30 09:46:00,64.4,56.3,29.97,SE,134,3.0,5.0,75,0.00,,SKC,0.00,VWS V12.07,2013-09-30 14:46:00,
2013-09-30 09:51:00,64.6,56.9,29.97,SSW,200,2.0,6.0,76,0.00,,SKC,0.00,VWS V12.07,2013-09-30 14:51:00,
2013-09-30 09:57:00,65.7,57.9,29.97,SE,126,1.0,6.0,76,0.00,,SKC,0.00,VWS V12.07,2013-09-30 14:57:00,
2013-09-30 10:03:00,66.4,58.6,29.97,SSE,154,2.0,4.0,76,0.00,,SKC,0.00,VWS V12.07,2013-09-30 15:03:00,
2013-09-30 10:08:00,66.8,58.6,29.97,East,98,3.0,5.0,75,0.00,,SKC,0.00,VWS V12.07,2013-09-30 15:08:00,
2013-09-30 10:13:00,67.1,59.3,29.97,SSW,212,0.0,5.0,76,0.00,,SKC,0.00,VWS V12.07,2013-09-30 15:13:00,
2013-09-30 10:19:00,67.6,60.1,29.96,ESE,120,2.0,6.0,77,0.00,,SKC,0.00,VWS V12.07,2013-09-30 15:19:00,
2013-09-30 10:26:00,68.4,60.9,29.96,SSW,193,4.0,6.0,77,0.00,,SKC,0.00,VWS V12.07,2013-09-30 15:26:00,
2013-09-30 10:34:00,68.6,60.7,29.95,ESE,105,3.0,6.0,76,0.00,,SKC,0.00,VWS V12.07,2013-09-30 15:34:00,
2013-09-30 10:40:00,69.1,62.0,29.95,ESE,111,0.0,11.0,78,0.00,,SKC,0.00,VWS V12.07,2013-09-30 15:40:00,
2013-09-30 10:45:00,69.7,62.2,29.95,ENE,67,2.0,11.0,77,0.00,,SKC,0.00,VWS V12.07,2013-09-30 15:45:00,
2013-09-30 10:51:00,69.9,62.4,29.95,SSW,203,2.0,11.0,77,0.00,,SKC,0.00,VWS V12.07,2013-09-30 15:51:00,
2013-09-30 10:58:00,70.3,63.1,29.95,WSW,246,1.0,11.0,78,0.00,,SKC,0.00,VWS V12.07,2013-09-30 15:58:00,
2013-09-30 11:03:00,70.6,63.0,29.95,WNW,285,2.0,9.0,77,0.00,,SKC,0.00,VWS V12.07,2013-09-30 16:03:00,
2013-09-30 11:11:00,70.8,62.9,29.95,NW,323,2.0,9.0,76,0.00,,SKC,0.00,VWS V12.07,2013-09-30 16:11:00,
2013-09-30 11:17:00,70.3,62.8,29.95,South,188,2.0,9.0,77,0.00,,SKC,0.00,VWS V12.07,2013-09-30 16:17:00,
2013-09-30 11:23:00,70.2,62.7,29.95,WSW,250,0.0,9.0,77,0.00,,SKC,0.00,VWS V12.07,2013-09-30 16:23:00,
2013-09-30 11:29:00,70.8,63.2,29.95,SSW,195,1.0,9.0,77,0.00,,SKC,0.00,VWS V12.07,2013-09-30 16:29:00,
2013-09-30 11:35:00,71.3,63.0,29.95,East,89,0.0,6.0,75,0.00,,SKC,0.00,VWS V12.07,2013-09-30 16:35:00,
2013-09-30 11:41:00,72.0,63.7,29.95,West,269,1.0,10.0,75,0.00,,SKC,0.00,VWS V12.07,2013-09-30 16:41:00,
2013-09-30 11:47:00,71.8,63.1,29.95,SSW,201,1.0,10.0,74,0.00,,SKC,0.00,VWS V12.07,2013-09-30 16:47:00,
2013-09-30 11:53:00,72.1,63.4,29.95,ESE,120,4.0,10.0,74,0.00,,SKC,0.00,VWS V12.07,2013-09-30 16:53:00,
2013-09-30 11:59:00,72.1,63.4,29.95,West,264,1.0,10.0,74,0.00,,SKC,0.00,VWS V12.07,2013-09-30 16:59:00,
2013-09-30 12:05:00,73.1,63.9,29.95,SW,219,2.0,7.0,73,0.00,,SKC,0.00,VWS V12.07,2013-09-30 17:05:00,
2013-09-30 12:11:00,73.8,63.8,29.94,ESE,105,2.0,7.0,71,0.00,,SKC,0.00,VWS V12.07,2013-09-30 17:11:00,
2013-09-30 12:17:00,73.3,63.3,29.94,SW,221,2.0,7.0,71,0.00,,SKC,0.00,VWS V12.07,2013-09-30 17:17:00,
2013-09-30 12:23:00,73.5,63.5,29.94,South,174,5.0,7.0,71,0.00,,SKC,0.00,VWS V12.07,2013-09-30 17:23:00,
2013-09-30 12:29:00,73.9,63.5,29.94,SE,125,4.0,10.0,70,0.00,,SKC,0.00,VWS V12.07,2013-09-30 17:29:00,
2013-09-30 12:35:00,74.2,63.8,29.94,NW,307,0.0,7.0,70,0.00,,SKC,0.00,VWS V12.07,2013-09-30 17:35:00,
2013-09-30 12:41:00,74.7,63.9,29.94,ESE,105,1.0,7.0,69,0.00,,SKC,0.00,VWS V12.07,2013-09-30 17:41:00,
2013-09-30 12:47:00,74.7,63.9,29.94,ESE,111,5.0,7.0,69,0.00,,SKC,0.00,VWS V12.07,2013-09-30 17:47:00,
2013-09-30 12:53:00,75.0,63.7,29.94,South,188,1.0,7.0,68,0.00,,SKC,0.00,VWS V12.07,2013-09-30 17:53:00,
2013-09-30 12:59:00,75.3,63.6,29.93,ESE,107,5.0,8.0,67,0.00,,SKC,0.00,VWS V12.07,2013-09-30 17:59:00,
2013-09-30 13:05:00,75.2,63.5,29.93,SSE,162,1.0,5.0,67,0.00,,SKC,0.00,VWS V12.07,2013-09-30 18:05:00,
2013-09-30 13:11:00,75.0,62.0,29.93,WNW,297,2.0,8.0,64,0.00,,SKC,0.00,VWS V12.07,2013-09-30 18:11:00,
2013-09-30 13:17:00,75.4,61.9,29.93,NW,318,2.0,8.0,63,0.00,,SKC,0.00,VWS V12.07,2013-09-30 18:17:00,
2013-09-30 13:23:00,75.5,62.9,29.92,SW,227,2.0,8.0,65,0.00,,SKC,0.00,VWS V12.07,2013-09-30 18:23:00,
2013-09-30 13:29:00,75.6,61.7,29.92,SW,235,11.0,11.0,62,0.00,,SKC,0.00,VWS V12.07,2013-09-30 18:29:00,
2013-09-30 13:35:00,76.2,61.8,29.92,WNW,285,1.0,6.0,61,0.00,,SKC,0.00,VWS V12.07,2013-09-30 18:35:00,
2013-09-30 13:41:00,76.1,62.2,29.91,WNW,293,5.0,8.0,62,0.00,,SKC,0.00,VWS V12.07,2013-09-30 18:41:00,
2013-09-30 13:47:00,76.6,62.2,29.91,SSE,150,1.0,8.0,61,0.00,,SKC,0.00,VWS V12.07,2013-09-30 18:47:00,
2013-09-30 13:53:00,77.4,62.4,29.90,NNE,13,2.0,8.0,60,0.00,,SKC,0.00,VWS V12.07,2013-09-30 18:53:00,
2013-09-30 13:59:00,76.8,60.9,29.90,ENE,58,3.0,9.0,58,0.00,,SKC,0.00,VWS V12.07,2013-09-30 18:59:00,
2013-09-30 14:05:00,76.9,61.5,29.90,South,177,1.0,7.0,59,0.00,,SKC,0.00,VWS V12.07,2013-09-30 19:05:00,
2013-09-30 14:11:00,76.6,61.7,29.89,West,270,1.0,12.0,60,0.00,,SKC,0.00,VWS V12.07,2013-09-30 19:11:00,
2013-09-30 14:17:00,76.6,61.7,29.89,WSW,248,3.0,12.0,60,0.00,,SKC,0.00,VWS V12.07,2013-09-30 19:17:00,
2013-09-30 14:23:00,77.6,61.7,29.89,NW,304,1.0,12.0,58,0.00,,SKC,0.00,VWS V12.07,2013-09-30 19:23:00,
2013-09-30 14:29:00,77.8,61.9,29.89,NW,304,1.0,12.0,58,0.00,,SKC,0.00,VWS V12.07,2013-09-30 19:29:00,
2013-09-30 14:35:00,77.4,61.0,29.89,NNW,328,2.0,10.0,57,0.00,,SKC,0.00,VWS V12.07,2013-09-30 19:35:00,
2013-09-30 14:41:00,77.6,61.7,29.89,NW,304,0.0,10.0,58,0.00,,SKC,0.00,VWS V12.07,2013-09-30 19:41:00,
2013-09-30 14:47:00,77.9,60.5,29.89,SW,235,0.0,10.0,55,0.00,,SKC,0.00,VWS V12.07,2013-09-30 19:47:00,
2013-09-30 14:53:00,78.0,61.0,29.89,SSE,165,4.0,10.0,56,0.00,,SKC,0.00,VWS V12.07,2013-09-30 19:53:00,
2013-09-30 14:59:00,77.9,61.0,29.88,SSW,193,1.0,12.0,56,0.00,,SKC,0.00,VWS V12.07,2013-09-30 19:59:00,
2013-09-30 15:05:00,78.2,61.7,29.88,ESE,122,1.0,4.0,57,0.00,,SKC,0.00,VWS V12.07,2013-09-30 20:05:00,
2013-09-30 15:11:00,78.3,60.3,29.88,SSE,150,4.0,10.0,54,0.00,,SKC,0.00,VWS V12.07,2013-09-30 20:11:00,
2013-09-30 15:17:00,78.3,60.8,29.88,SSE,163,0.0,10.0,55,0.00,,SKC,0.00,VWS V12.07,2013-09-30 20:17:00,
2013-09-30 15:23:00,78.7,60.7,29.88,SW,217,1.0,10.0,54,0.00,,SKC,0.00,VWS V12.07,2013-09-30 20:23:00,
2013-09-30 15:29:00,78.6,61.1,29.88,SW,215,2.0,10.0,55,0.00,,SKC,0.00,VWS V12.07,2013-09-30 20:29:00,
2013-09-30 15:35:00,78.4,60.9,29.88,WSW,246,1.0,6.0,55,0.00,,SKC,0.00,VWS V12.07,2013-09-30 20:35:00,
2013-09-30 15:41:00,78.2,60.7,29.88,SW,233,4.0,12.0,55,0.00,,SKC,0.00,VWS V12.07,2013-09-30 20:41:00,
2013-09-30 15:47:00,78.3,61.3,29.87,SSE,148,2.0,12.0,56,0.00,,SKC,0.00,VWS V12.07,2013-09-30 20:47:00,
2013-09-30 15:53:00,78.1,61.1,29.87,ESE,108,4.0,12.0,56,0.00,,SKC,0.00,VWS V12.07,2013-09-30 20:53:00,
2013-09-30 15:59:00,78.2,61.2,29.87,WSW,248,0.0,12.0,56,0.00,,SKC,0.00,VWS V12.07,2013-09-30 20:59:00,
2013-09-30 16:05:00,78.5,61.5,29.87,South,179,5.0,8.0,56,0.00,,SKC,0.00,VWS V12.07,2013-09-30 21:05:00,
2013-09-30 16:11:00,78.7,61.7,29.87,South,179,3.0,8.0,56,0.00,,SKC,0.00,VWS V12.07,2013-09-30 21:11:00,
2013-09-30 16:17:00,78.7,61.2,29.87,SW,218,1.0,8.0,55,0.00,,SKC,0.00,VWS V12.07,2013-09-30 21:17:00,
2013-09-30 16:23:00,78.6,60.6,29.87,NE,47,3.0,8.0,54,0.00,,SKC,0.00,VWS V12.07,2013-09-30 21:23:00,
2013-09-30 16:29:00,78.6,61.1,29.87,WSW,254,8.0,8.0,55,0.00,,SKC,0.00,VWS V12.07,2013-09-30 21:29:00,
2013-09-30 16:35:00,78.3,60.8,29.87,SSW,211,1.0,7.0,55,0.00,,SKC,0.00,VWS V12.07,2013-09-30 21:35:00,
2013-09-30 16:41:00,78.2,60.7,29.87,East,88,3.0,10.0,55,0.00,,SKC,0.00,VWS V12.07,2013-09-30 21:41:00,
2013-09-30 16:47:00,78.3,60.8,29.87,SE,143,0.0,10.0,55,0.00,,SKC,0.00,VWS V12.07,2013-09-30 21:47:00,
2013-09-30 16:53:00,78.2,60.7,29.87,WSW,238,3.0,10.0,55,0.00,,SKC,0.00,VWS V12.07,2013-09-30 21:53:00,
2013-09-30 16:59:00,77.9,60.5,29.87,West,266,1.0,10.0,55,0.00,,SKC,0.00,VWS V12.07,2013-09-30 21:59:00,
2013-09-30 17:05:00,77.9,61.0,29.87,North,5,2.0,8.0,56,0.00,,SKC,0.00,VWS V12.07,2013-09-30 22:05:00,
2013-09-30 17:14:00,77.7,60.3,29.87,SSW,212,1.0,8.0,55,0.00,,SKC,0.00,VWS V12.07,2013-09-30 22:14:00,
2013-09-30 17:20:00,77.4,60.5,29.87,SE,143,2.0,8.0,56,0.00,,SKC,0.00,VWS V12.07,2013-09-30 22:20:00,
2013-09-30 17:26:00,77.3,60.9,29.87,NNE,25,2.0,8.0,57,0.00,,SKC,0.00,VWS V12.07,2013-09-30 22:26:00,
2013-09-30 17:32:00,77.2,61.3,29.88,SSW,207,1.0,3.0,58,0.00,,SKC,0.00,VWS V12.07,2013-09-30 22:32:00,
2013-09-30 17:38:00,77.3,61.9,29.88,ESE,112,1.0,6.0,59,0.00,,SKC,0.00,VWS V12.07,2013-09-30 22:38:00,
2013-09-30 17:44:00,76.7,61.3,29.88,ESE,119,0.0,6.0,59,0.00,,SKC,0.00,VWS V12.07,2013-09-30 22:44:00,
2013-09-30 17:50:00,76.0,60.2,29.88,ENE,74,1.0,6.0,58,0.00,,SKC,0.00,VWS V12.07,2013-09-30 22:50:00,
2013-09-30 17:56:00,75.8,60.5,29.88,SE,135,0.0,6.0,59,0.00,,SKC,0.00,VWS V12.07,2013-09-30 22:56:00,
2013-09-30 18:02:00,75.4,60.1,29.88,SSW,203,3.0,5.0,59,0.00,,SKC,0.00,VWS V12.07,2013-09-30 23:02:00,
2013-09-30 18:08:00,74.8,60.5,29.88,WSW,254,1.0,5.0,61,0.00,,SKC,0.00,VWS V12.07,2013-09-30 23:08:00,
2013-09-30 18:14:00,74.0,60.6,29.88,SE,134,1.0,7.0,63,0.00,,SKC,0.00,VWS V12.07,2013-09-30 23:14:00,
2013-09-30 18:20:00,73.1,60.2,29.88,ENE,58,1.0,7.0,64,0.00,,SKC,0.00,VWS V12.07,2013-09-30 23:20:00,
2013-09-30 18:26:00,72.4,60.4,29.88,SSW,212,1.0,7.0,66,0.00,,SKC,0.00,VWS V12.07,2013-09-30 23:26:00,
2013-09-30 18:32:00,71.7,60.6,29.88,SSW,213,0.0,0.0,68,0.00,,SKC,0.00,VWS V12.07,2013-09-30 23:32:00,
2013-09-30 18:38:00,71.0,60.7,29.89,ESE,120,0.0,6.0,70,0.00,,SKC,0.00,VWS V12.07,2013-09-30 23:38:00,
2013-09-30 18:44:00,70.4,60.6,29.89,SE,138,0.0,6.0,71,0.00,,SKC,0.00,VWS V12.07,2013-09-30 23:44:00,
2013-09-30 18:50:00,69.7,60.3,29.89,South,186,0.0,6.0,72,0.00,,SKC,0.00,VWS V12.07,2013-09-30 23:50:00,
2013-09-30 18:56:00,69.0,60.4,29.89,ESE,113,0.0,6.0,74,0.00,,SKC,0.00,VWS V12.07,2013-09-30 23:56:00,
2013-09-30 19:02:00,68.3,60.1,29.89,ESE,113,0.0,0.0,75,0.00,,SKC,0.00,VWS V12.07,2013-10-01 00:02:00,
2013-09-30 19:08:00,67.7,60.2,29.89,South,183,0.0,3.0,77,0.00,,SKC,0.00,VWS V12.07,2013-10-01 00:08:00,
2013-09-30 19:14:00,67.2,60.5,29.89,East,87,0.0,3.0,79,0.00,,SKC,0.00,VWS V12.07,2013-10-01 00:14:00,
2013-09-30 19:20:00,66.8,60.4,29.89,East,94,0.0,3.0,80,0.00,,SKC,0.00,VWS V12.07,2013-10-01 00:20:00,
2013-09-30 19:26:00,66.4,60.4,29.89,SE,140,0.0,3.0,81,0.00,,SKC,0.00,VWS V12.07,2013-10-01 00:26:00,
2013-09-30 19:32:00,65.9,60.3,29.89,SSW,194,0.0,1.0,82,0.00,,SKC,0.00,VWS V12.07,2013-10-01 00:32:00,
2013-09-30 19:38:00,65.4,60.1,29.89,SSW,194,0.0,1.0,83,0.00,,SKC,0.00,VWS V12.07,2013-10-01 00:38:00,
2013-09-30 19:44:00,65.2,60.2,29.88,South,170,0.0,1.0,84,0.00,,SKC,0.00,VWS V12.07,2013-10-01 00:44:00,
2013-09-30 19:50:00,64.8,59.9,29.89,SSE,150,0.0,1.0,84,0.00,,SKC,0.00,VWS V12.07,2013-10-01 00:50:00,
2013-09-30 19:56:00,64.6,60.0,29.88,SE,146,0.0,1.0,85,0.00,,SKC,0.00,VWS V12.07,2013-10-01 00:56:00,
2013-09-30 20:02:00,64.4,60.1,29.88,SE,145,0.0,0.0,86,0.00,,SKC,0.00,VWS V12.07,2013-10-01 01:02:00,
2013-09-30 20:08:00,64.3,60.0,29.88,ESE,117,0.0,0.0,86,0.00,,SKC,0.00,VWS V12.07,2013-10-01 01:08:00,
2013-09-30 20:14:00,64.2,60.3,29.88,SE,145,0.0,1.0,87,0.00,,SKC,0.00,VWS V12.07,2013-10-01 01:14:00,
2013-09-30 20:20:00,64.1,60.2,29.88,SE,132,0.0,1.0,87,0.00,,SKC,0.00,VWS V12.07,2013-10-01 01:20:00,
2013-09-30 20:26:00,63.9,60.0,29.88,SE,133,0.0,1.0,87,0.00,,SKC,0.00,VWS V12.07,2013-10-01 01:26:00,
2013-09-30 20:32:00,63.7,60.1,29.88,SE,134,0.0,0.0,88,0.00,,SKC,0.00,VWS V12.07,2013-10-01 01:32:00,
2013-09-30 20:38:00,63.5,59.9,29.89,SSE,166,0.0,0.0,88,0.00,,SKC,0.00,VWS V12.07,2013-10-01 01:38:00,
2013-09-30 20:44:00,63.2,59.9,29.88,SSE,166,0.0,0.0,89,0.00,,SKC,0.00,VWS V12.07,2013-10-01 01:44:00,
2013-09-30 20:50:00,62.8,59.2,29.88,SSE,166,0.0,0.0,88,0.00,,SKC,0.00,VWS V12.07,2013-10-01 01:50:00,
2013-09-30 20:56:00,62.3,59.0,29.88,SSE,166,0.0,0.0,89,0.00,,SKC,0.00,VWS V12.07,2013-10-01 01:56:00,
2013-09-30 21:02:00,61.8,58.8,29.88,SSE,166,0.0,0.0,90,0.00,,SKC,0.00,VWS V12.07,2013-10-01 02:02:00,
2013-09-30 21:08:00,61.8,59.2,29.88,SSE,166,0.0,0.0,91,0.00,,SKC,0.00,VWS V12.07,2013-10-01 02:08:00,
2013-09-30 21:14:00,61.8,59.5,29.88,SSE,163,0.0,0.0,92,0.00,,SKC,0.00,VWS V12.07,2013-10-01 02:14:00,
2013-09-30 21:20:00,62.0,59.7,29.88,SSE,157,0.0,0.0,92,0.00,,SKC,0.00,VWS V12.07,2013-10-01 02:20:00,
2013-09-30 21:26:00,62.1,59.5,29.88,SE,135,0.0,1.0,91,0.00,,SKC,0.00,VWS V12.07,2013-10-01 02:26:00,
2013-09-30 21:32:00,62.1,59.5,29.89,SE,136,0.0,0.0,91,0.00,,SKC,0.00,VWS V12.07,2013-10-01 02:32:00,
2013-09-30 21:38:00,62.1,59.8,29.89,SE,135,0.0,0.0,92,0.00,,SKC,0.00,VWS V12.07,2013-10-01 02:38:00,
2013-09-30 21:44:00,62.1,59.5,29.89,SSE,150,0.0,0.0,91,0.00,,SKC,0.00,VWS V12.07,2013-10-01 02:44:00,
2013-09-30 21:50:00,62.1,59.8,29.89,SSE,151,0.0,0.0,92,0.00,,SKC,0.00,VWS V12.07,2013-10-01 02:50:00,
2013-09-30 21:56:00,62.1,59.8,29.89,SSE,150,0.0,0.0,92,0.00,,SKC,0.00,VWS V12.07,2013-10-01 02:56:00,
2013-09-30 22:02:00,62.1,59.8,29.89,SE,133,0.0,1.0,92,0.00,,SKC,0.00,VWS V12.07,2013-10-01 03:02:00,
2013-09-30 22:08:00,62.3,60.0,29.89,SSE,164,0.0,2.0,92,0.00,,SKC,0.00,VWS V12.07,2013-10-01 03:08:00,
2013-09-30 22:14:00,62.3,59.6,29.89,SE,125,0.0,2.0,91,0.00,,SKC,0.00,VWS V12.07,2013-10-01 03:14:00,
2013-09-30 22:20:00,62.5,59.8,29.90,ESE,110,0.0,3.0,91,0.00,,SKC,0.00,VWS V12.07,2013-10-01 03:20:00,
2013-09-30 22:26:00,62.6,59.9,29.89,SE,133,1.0,3.0,91,0.00,,SKC,0.00,VWS V12.07,2013-10-01 03:26:00,
2013-09-30 22:32:00,62.7,60.0,29.89,SE,142,0.0,1.0,91,0.00,,SKC,0.00,VWS V12.07,2013-10-01 03:32:00,
2013-09-30 22:39:00,62.8,59.8,29.89,SE,125,0.0,4.0,90,0.00,,SKC,0.00,VWS V12.07,2013-10-01 03:39:00,
2013-09-30 22:44:00,62.8,59.8,29.89,SSE,148,2.0,4.0,90,0.00,,SKC,0.00,VWS V12.07,2013-10-01 03:44:00,
2013-09-30 22:50:00,62.8,59.8,29.89,SE,133,2.0,4.0,90,0.00,,SKC,0.00,VWS V12.07,2013-10-01 03:50:00,
2013-09-30 22:56:00,62.9,59.9,29.89,SSE,152,0.0,4.0,90,0.00,,SKC,0.00,VWS V12.07,2013-10-01 03:56:00,
2013-09-30 23:02:00,62.8,59.8,29.90,SE,125,1.0,4.0,90,0.00,,SKC,0.00,VWS V12.07,2013-10-01 04:02:00,
2013-09-30 23:05:00,62.8,59.8,29.90,East,89,1.0,4.0,90,0.00,,SKC,0.00,VWS V12.07,2013-10-01 04:05:00,
2013-09-30 23:11:00,62.7,59.7,29.90,SE,145,0.0,4.0,90,0.00,,SKC,0.00,VWS V12.07,2013-10-01 04:11:00,
2013-09-30 23:17:00,62.6,59.6,29.90,SE,139,1.0,4.0,90,0.00,,SKC,0.00,VWS V12.07,2013-10-01 04:17:00,
2013-09-30 23:20:00,62.6,59.6,29.90,ESE,120,0.0,4.0,90,0.00,,SKC,0.00,VWS V12.07,2013-10-01 04:20:00,
2013-09-30 23:26:00,62.4,59.7,29.90,SE,136,1.0,4.0,91,0.00,,SKC,0.00,VWS V12.07,2013-10-01 04:26:00,
2013-09-30 23:32:00,62.4,59.4,29.90,SSE,165,0.0,2.0,90,0.00,,SKC,0.00,VWS V12.07,2013-10-01 04:32:00,
2013-09-30 23:38:00,62.4,59.7,29.90,SSE,158,0.0,2.0,91,0.00,,SKC,0.00,VWS V12.07,2013-10-01 04:38:00,
2013-09-30 23:41:00,62.4,59.7,29.90,SSE,150,0.0,2.0,91,0.00,,SKC,0.00,VWS V12.07,2013-10-01 04:41:00,
2013-09-30 23:47:00,62.2,59.5,29.90,WSW,245,0.0,2.0,91,0.00,,SKC,0.00,VWS V12.07,2013-10-01 04:47:00,
2013-09-30 23:53:00,62.0,59.3,29.90,South,174,0.0,2.0,91,0.00,,SKC,0.00,VWS V12.07,2013-10-01 04:53:00,
2013-09-30 23:59:00,62.0,59.7,29.90,SSE,162,0.0,2.0,92,0.00,,SKC,0.00,VWS V12.07,2013-10-01 04:59:00,